Location: ????
(48.5666°N, 34.4611°E)
Time: 19:20:47
(UTC+00:00)

Daily predictions for brighter satellites

Satellite Brightness Start Highest point End
(mag) Time Altitude Azimuth Time Altitude Azimuth Time Altitude Azimuth
ATLAS 2AS CENTAUR R/B 3.3 17:44:44 10° NW 17:52:05 53° NE 17:58:51 10° ESE
Meteor 1-14 Rocket 4.3 17:48:55 10° N 17:54:47 77° ENE 18:00:28 10° SSE
deb Kosmos-1763 4.0 17:51:50 10° NNW 17:55:23 76° ENE 17:58:54 10° SSE
Cosmos 1666 3.5 17:52:22 10° N 17:55:50 35° ENE 17:59:15 10° SE
Cosmos 1242 Rocket 3.9 17:53:55 10° SSW 17:57:19 43° WNW 18:00:41 10° N
Cosmos 1833 Rocket 2.8 17:52:33 10° NNW 17:58:14 80° WSW 18:03:53 10° SSE
ARIANE 5 R/B 4.0 17:55:50 10° ESE 17:59:19 24° ENE 18:02:50 10° N
USA 215 4.2 17:53:03 10° NE 17:59:23 54° NNW 18:05:42 10° W
Cosmos 1709 Rocket 4.2 17:54:27 10° NNW 18:00:34 79° W 18:06:40 10° S
USA 186 4.1 18:00:32 10° SW 18:01:51 14° W 18:03:08 10° WNW
CZ-4C R/B 3.4 17:55:19 10° NW 18:02:27 62° SW 18:10:41 10° SSE
Cosmos 1812 2.9 18:00:03 10° S 18:03:47 50° E 18:07:32 10° NNE
USA 245 4.0 18:04:03 10° ESE 18:05:43 18° ENE 18:07:30 10° NNE
USA 307 3.6 18:02:49 10° WNW 18:06:55 45° SW 18:10:59 10° SE
Cosmos 158 Rocket 4.0 18:03:31 10° NNW 18:08:23 62° ENE 18:13:18 10° SE
Cosmos 2074 Rocket 4.3 18:05:03 10° N 18:11:13 53° ENE 18:17:21 10° SSE
Cosmos 2184 Rocket 4.3 18:06:16 10° N 18:12:20 52° ENE 18:18:19 10° SSE
BREEZE-M DEB (TANK) 4.3 17:58:56 10° WSW 18:13:39 80° NNW 18:17:17 10° ENE
Cosmos 44 4.0 18:08:45 10° NNW 18:14:06 52° NE 18:19:06 11° ESE
USA 308 3.9 18:16:45 10° WNW 18:20:42 37° SW 18:24:26 11° SSE
Cosmos 1782 3.9 18:17:09 10° SSW 18:21:00 47° WNW 18:24:51 10° N
Meteor 1-5 Rocket 4.1 18:19:23 10° NNW 18:24:46 86° W 18:30:03 10° S
CRYOSAT 2 4.4 18:20:17 10° S 18:25:10 87° E 18:30:06 10° N
Gbstr 26 Del rocket 4.4 18:18:17 10° WNW 18:26:14 81° NNE 18:33:01 10° ESE
Cosmos 1500 4.0 18:22:57 10° NNW 18:26:36 49° W 18:30:12 10° S
Cosmos 2297 4.4 18:30:22 10° SSE 18:35:25 34° ESE 18:40:27 10° NE
MetOp-B 4.2 18:30:21 10° SSE 18:35:42 86° WSW 18:41:07 10° NNW
Meteor 1-11 Rocket 3.9 18:29:48 10° N 18:35:45 67° ENE 18:41:00 13° SSE
Terra 3.0 18:33:24 13° ESE 18:36:53 30° ENE 18:40:59 10° N
Cosmos 1461 4.3 18:38:00 13° SSE 18:41:02 23° ESE 18:44:43 10° ENE
Cosmos 1515 Rocket 3.9 18:39:08 10° SSW 18:43:30 66° W 18:47:52 10° N
Cosmos 2228 Rocket 3.2 18:41:38 11° S 18:45:51 58° E 18:50:16 10° NNE
Cosmos 1340 Rocket 3.6 18:42:51 10° N 18:46:43 39° ENE 18:49:10 19° SE
Cosmos 2112 Rocket 4.2 18:42:41 10° NNW 18:48:02 65° ENE 18:52:02 18° SE
Cosmos 1869 Rocket 3.6 18:44:24 10° N 18:48:43 64° ENE 18:51:51 18° SSE
Cosmos 2082 Rocket 2.5 18:43:23 10° NNW 18:48:57 63° WSW 18:53:48 14° S
Resurs 01 Rocket 2.7 18:44:58 10° S 18:49:11 42° W 18:53:25 10° NNW
SPOT 1/Viking Rocket 3.7 18:47:10 12° S 18:52:01 78° WSW 18:57:14 10° NNW
ERS-1 Rocket 3.2 18:49:27 17° SE 18:53:10 58° ENE 18:58:07 10° N
Tianhe-1 2.6 18:50:50 10° SW 18:53:07 20° S 18:53:07 20° S
Meteor 2-12 Rocket 4.4 18:50:21 10° N 18:56:27 84° E 19:01:33 15° SSE
Cosmos 1943 Rocket 2.7 18:53:41 14° S 18:58:05 37° ESE 19:03:11 10° NE
Spot 2 Rocket 3.5 18:55:08 16° SSE 18:59:15 87° WSW 19:04:20 10° NNW
Cosmos 1937 Rocket 4.0 18:56:54 16° SSE 19:00:31 40° ESE 19:05:21 10° NE
Meteor 1-10 Rocket 4.4 18:55:03 10° SSW 19:00:39 78° WNW 19:06:25 10° N
DNEPR-1 R/B 4.3 18:57:44 10° SSW 19:03:30 48° ESE 19:08:19 10° NE
SPOT 5 3.1 19:03:13 20° SSE 19:06:55 74° ENE 19:12:16 10° N
Cosmos 1707 Rocket 4.1 19:04:40 23° SSE 19:06:59 42° E 19:11:10 10° NNE
CARTOSAT-1 3.6 19:05:19 19° S 19:08:21 80° WSW 19:12:41 10° NNW
CZ-2C R/B 4.2 19:04:10 10° N 19:08:38 61° WNW 19:13:10 10° SSW
Cosmos 2341 Rocket 4.4 19:02:25 10° N 19:08:40 51° ENE 19:12:49 21° SE
Cosmos 1536 2.8 19:06:29 10° N 19:10:33 85° W 19:13:01 23° S
ERBS 2.2 19:07:25 10° NW 19:10:44 84° NE 19:12:12 31° ESE
Cosmos 1680 Rocket 3.7 19:08:14 10° NNW 19:13:34 71° WSW 19:17:11 21° S
Cosmos 2278 Rocket 3.6 19:09:26 10° WSW 19:14:45 40° NW 19:20:06 10° NNE
Cosmos 1271 Rocket 3.9 19:11:11 10° SSW 19:15:02 44° WNW 19:18:53 10° N
SL-24 DEB 4.2 19:14:30 24° SSE 19:17:13 68° E 19:21:50 10° N
Cosmos 1238 Rocket 4.1 19:11:53 10° N 19:17:33 46° ENE 19:20:17 24° SE
Cosmos 2369 Rocket 3.1 19:17:03 23° SE 19:19:12 30° ESE 19:24:02 10° NE
SJ 16-02 3.2 19:18:07 10° WSW 19:22:06 32° WNW 19:26:07 10° N
Cosmos 2084 Rocket 3.6 19:17:58 10° NW 19:22:13 65° SW 19:24:21 29° SSE
ISS -3.9 19:19:41 10° WSW 19:23:04 86° SSE 19:26:27 10° ENE
Cosmos 1544 3.1 19:21:44 10° NNW 19:25:21 76° W 19:27:01 30° S
Cosmos 1975 4.0 19:24:51 10° N 19:28:23 29° ENE 19:29:39 24° ESE
SL-8 Rocket 4.3 19:22:20 10° N 19:28:34 55° ENE 19:32:12 25° SE
BREEZE-M R/B 1.8 19:28:07 10° WNW 19:30:32 77° N 19:31:24 39° E
Cosmos 1733 Rocket 3.1 19:29:14 10° N 19:33:33 63° ENE 19:35:19 33° SSE
ARIANE 5 R/B 3.6 19:32:42 18° SSW 19:35:35 40° W 19:39:42 10° NNW
RESURS DK-1 3.4 19:36:06 10° NNW 19:40:00 37° NE 19:41:51 24° ESE
USA 215 4.4 19:35:40 10° ENE 19:41:45 43° N 19:47:50 10° WNW
Cosmos 372 Rocket 4.1 19:40:13 30° SSE 19:42:29 51° ESE 19:47:25 10° NNE
ATLAS 2AS CENTAUR R/B 3.3 19:36:05 10° NW 19:43:02 47° WSW 19:47:04 23° S
SL-27 R/B 4.2 19:42:36 10° N 19:45:08 20° ENE 19:46:02 18° E
Cosmos 1898 Rocket 3.9 19:42:26 10° SSW 19:47:42 65° WNW 19:53:03 10° NNE
Cosmos 1908 Rocket 4.3 19:49:06 10° N 19:53:21 40° ENE 19:54:44 31° ESE
Cosmos 1818 4.1 19:50:29 10° NW 19:55:47 49° WSW 19:58:08 30° S
Cosmos 1959 Rocket 4.5 19:50:07 10° N 19:56:20 71° ENE 19:59:24 31° SSE
Cosmos 1743 3.7 19:58:55 10° NNW 20:02:33 39° W 20:04:02 27° SW
Meteor 1-19 Rocket 4.0 20:00:56 31° S 20:03:34 78° E 20:09:00 10° NNE
Cosmos 2242 Rocket 4.3 20:06:35 34° ESE 20:07:20 37° E 20:11:29 10° NNE
Meteor 2-4 Rocket 3.9 20:08:56 35° SSE 20:11:02 54° E 20:16:27 10° NNE
Gbstr 26 Del rocket 4.5 20:06:16 10° WNW 20:13:24 49° SW 20:15:50 34° S
H-2A R/B 4.2 20:09:36 10° N 20:13:41 51° WNW 20:15:56 24° SW
Terra 2.8 20:12:16 24° SSW 20:14:30 38° W 20:18:58 10° NNW
Cosmos 44 Rocket 4.1 20:09:41 10° NNW 20:14:48 50° NE 20:17:32 25° ESE
Cosmos 2150 Rocket 4.4 20:15:51 38° SE 20:17:08 45° ESE 20:22:08 10° NE
Cosmos 1461 3.7 20:15:10 10° SW 20:19:49 58° NW 20:24:22 10° NNE
Okean 1-7 3.4 20:19:41 41° ESE 20:20:14 44° E 20:24:19 10° NNE
Cosmos 1833 4.3 20:16:17 10° NNW 20:22:05 77° ENE 20:24:30 37° SE
Cosmos 1862 Rocket 3.8 20:20:42 34° SW 20:22:23 61° WNW 20:26:42 10° N
Cosmos 1703 Rocket 3.8 20:23:08 45° SE 20:23:50 50° E 20:28:07 10° NNE
Cosmos 1125 Rocket 4.0 20:24:03 38° SE 20:25:01 42° ESE 20:29:55 10° NE
Cosmos 1782 Rocket 4.1 20:21:36 10° N 20:25:55 47° ENE 20:26:53 40° ESE
Cosmos 1607 4.0 20:22:36 26° SSW 20:26:26 70° ESE 20:32:55 10° NE
Okean 1 4.2 20:25:18 28° SW 20:26:55 43° WNW 20:30:45 10° N
Cosmos 1821 Rocket 4.3 20:23:54 10° N 20:30:15 60° ENE 20:32:57 34° SE
Cosmos 2366 rocket 4.1 20:25:14 10° NNW 20:31:23 67° W 20:34:17 33° SSW
ATLAS CENTAUR R/B 1.1 20:34:09 62° E 20:34:09 62° E 20:37:39 10° NE
Cosmos 2181 Rocket 4.2 20:31:25 26° SSW 20:34:59 65° WNW 20:41:06 10° N
Cosmos 2344 4.4 20:27:51 10° NW 20:36:52 79° NE 20:46:41 19° SE
COSMOS 2487 4.2 20:36:21 10° N 20:39:05 22° ENE 20:39:36 21° ENE
Cosmos 1943 Rocket 3.3 20:36:28 10° WSW 20:41:47 42° NW 20:47:05 10° NNE
Cosmos 1656 Rocket 3.6 20:48:48 36° SSW 20:51:08 88° WNW 20:56:44 10° NNE
Cosmos 1867 3.6 20:48:05 24° SW 20:51:31 77° NW 20:57:01 10° NE
Spot 4 3.9 20:51:29 50° S 20:52:42 72° WSW 20:57:34 10° NNW
ISS -2.8 20:56:47 10° W 21:00:04 48° N 21:03:22 10° ENE
Cosmos 1048 Rocket 4.4 20:56:08 10° NNW 21:01:16 52° WSW 21:02:32 42° SSW
Cosmos 2369 Rocket 2.9 20:58:46 17° SW 21:02:58 51° NW 21:08:31 10° NNE
Cosmos 724 4.4 21:01:38 42° S 21:03:36 63° ESE 21:09:47 10° NE
Cosmos 1975 4.3 21:01:27 10° NNW 21:04:45 25° W 21:05:24 24° WSW
Cosmos 1733 3.9 21:05:06 10° N 21:08:44 42° ENE 21:08:55 42° E
Cosmos 1400 Rocket 4.5 21:06:19 10° NNE 21:09:42 24° ENE 21:10:40 22° E
NOSS 2-1 (E) 4.2 21:05:39 10° NW 21:10:33 86° NE 21:13:25 35° SE
ALOS 2 2.5 21:10:20 64° S 21:10:58 81° WSW 21:15:22 10° NNW
SeaSat 1 4.2 21:09:00 10° ENE 21:12:23 18° ESE 21:12:25 18° ESE
Lacrosse 5 2.0 21:15:09 52° SE 21:15:20 52° SE 21:20:17 10° ENE
Okean 3 3.3 21:15:15 72° S 21:15:40 90° SE 21:19:54 10° N
Nadezhda 3 Rocket 4.0 21:15:02 40° SSW 21:17:27 82° W 21:23:41 10° N
RESURS DK-1 3.8 21:14:23 10° NW 21:17:43 26° WSW 21:17:43 26° WSW
SL-27 R/B 3.9 21:17:15 10° NW 21:19:32 27° W 21:19:32 27° W
Cosmos 1356 Rocket 3.6 21:16:55 10° NNW 21:21:10 62° W 21:21:35 58° SW
Cosmos 1269 Rocket 4.0 21:15:53 10° NNW 21:21:12 77° ENE 21:22:45 46° SE
USA 215 3.8 21:17:47 10° E 21:24:10 60° NNE 21:30:36 10° NW
Cosmos 1300 Rocket 3.4 21:20:56 10° N 21:25:21 83° E 21:25:53 68° SSE
Meteor 1-12 Rocket 4.5 21:22:01 10° NNW 21:27:45 60° W 21:29:27 42° SSW
Thor Agena Rocket 3.6 21:28:34 10° NNE 21:33:50 66° ESE 21:35:05 50° SSE
COSMOS 2455 3.2 21:29:10 10° NNW 21:35:10 62° NE 21:38:39 25° SE
Cosmos 1605 Rocket 4.2 21:30:13 10° N 21:36:29 67° ENE 21:39:01 38° SSE
Sich 1 Rocket 3.6 21:34:06 10° NNW 21:38:37 65° W 21:39:11 59° SW
Cosmos 1066 Rocket 4.3 21:40:38 43° SSW 21:42:32 72° WNW 21:48:09 10° N
Cosmos 1805 3.4 21:39:23 10° NNW 21:43:12 61° W 21:43:12 61° W
Cosmos 1726 3.5 21:42:30 10° N 21:45:46 29° ENE 21:46:16 28° E
Meteor 1-15 Rocket 4.3 21:40:10 10° NNW 21:45:51 68° W 21:47:32 46° SSW
EO 1 Delta rocket 4.5 21:44:12 41° SSE 21:46:11 73° ENE 21:52:50 10° N
Cosmos 1378 4.3 21:47:26 32° W 21:47:44 32° WNW 21:51:08 10° N
COBE Rocket 4.4 21:46:43 42° SW 21:47:46 48° W 21:52:48 10° NNW
Okean 2 Rocket 3.0 21:45:57 10° NNW 21:50:20 70° W 21:50:47 64° SW
Cosmos 2227 Rocket 3.2 21:46:20 10° NNW 21:51:42 42° NE 21:55:58 15° ESE
Cosmos 2151 Rocket 3.5 21:47:50 10° N 21:52:22 85° W 21:52:59 66° S
Cosmos 2297 Rocket 2.8 21:48:26 10° NNW 21:54:00 54° NE 21:57:23 23° SE
Cosmos 44 Rocket 4.3 21:51:34 10° NW 21:56:11 32° WSW 21:56:13 32° WSW
PSLV R/B 3.5 21:53:55 10° NNE 21:58:14 65° ESE 21:58:40 60° SE
Timation 2 Rocket 4.4 21:54:46 10° NNW 22:00:38 54° NE 22:04:59 18° SE
Cosmos 1766 3.5 21:57:47 10° NNW 22:01:38 56° W 22:01:38 56° W
Cosmos 1934 Rocket 4.3 22:01:08 10° NNW 22:07:01 50° W 22:08:56 37° SW
Cosmos 1953 4.4 22:09:49 10° NNE 22:12:58 22° ENE 22:14:51 16° ESE
ATLAS CENTAUR R/B 3.6 22:10:17 10° W 22:13:08 20° NNW 22:16:05 10° NNE
COSMOS 2487 4.2 22:11:01 10° NW 22:12:53 23° WNW 22:12:53 23° WNW
Cosmos 1378 Rocket 3.4 22:16:17 66° S 22:16:52 86° E 22:21:12 10° N
Cosmos 1975 Rocket 4.5 22:17:07 24° ESE 22:18:15 28° E 22:21:56 10° NNE
Cosmos 371 Rocket 4.1 22:17:33 34° SE 22:18:33 38° ESE 22:23:04 10° NE
Cosmos 2100 Rocket 4.4 22:12:33 10° N 22:18:48 58° ENE 22:22:17 27° SE
Meteor 2-10 3.9 22:13:53 10° NNW 22:19:14 83° W 22:20:41 49° S
Meteor 2-20 4.4 22:18:33 41° S 22:20:52 82° E 22:27:03 10° NNE
Cosmos 1470 2.6 22:17:25 10° N 22:21:23 85° ENE 22:21:42 74° SSE
Meteor 1-21 4.4 22:20:55 40° SSE 22:22:58 67° E 22:28:43 10° NNE
YAOGAN 11 4.1 22:25:25 49° SE 22:26:28 72° ENE 22:30:46 10° N
CZ-4 R/B 4.1 22:29:10 10° NNE 22:33:56 59° E 22:35:13 43° SSE
Cosmos 1842 3.6 22:33:44 50° W 22:34:02 51° WNW 22:37:51 10° N
BREEZE-M DEB (TANK) 3.9 22:35:06 29° SE 22:36:00 31° SE 22:44:27 10° ENE
ISS -3.6 22:33:46 10° WNW 22:37:09 72° NNE 22:40:32 10° ESE
Resurs 1-4 Rocket 3.4 22:33:15 10° NNE 22:37:56 31° E 22:40:20 22° SE
Lacrosse 4 Rocket 2.9 22:37:55 24° SE 22:38:36 25° ESE 22:42:15 10° NE
CZ-2D R/B 3.3 22:36:01 10° NNE 22:40:51 33° E 22:43:21 22° SE
Cosmos 2263 Rocket 4.4 22:37:05 10° N 22:41:38 24° NE 22:46:10 10° E
Cosmos 2219 3.1 22:37:17 10° NNW 22:43:01 81° WSW 22:45:42 33° SSE
Okean 1 Rocket 3.3 22:39:27 10° NNW 22:43:43 52° W 22:44:17 48° WSW
APEX 4.3 22:39:38 10° NNW 22:44:04 59° ENE 22:48:44 14° SE
EO 1 Del DPAF 3.8 22:41:27 10° N 22:45:01 43° WNW 22:45:27 41° W
Cosmos 1400 Rocket 3.8 22:42:34 10° NNW 22:46:13 32° W 22:46:15 32° W
Cosmos 1727 Rocket 4.1 22:44:17 37° SSW 22:46:59 74° W 22:53:23 10° N
Cosmos 1674 Rocket 4.3 22:46:53 35° WSW 22:47:55 41° WNW 22:52:10 10° N
Cosmos 614 Rocket 3.8 22:43:09 10° NNW 22:48:17 89° WSW 22:50:29 35° SSE
SeaSat 1 2.5 22:45:26 10° NNE 22:50:23 76° WNW 22:52:12 40° SW
SL-24 R/B 4.3 22:49:51 48° SW 22:50:33 54° W 22:54:43 10° NNW
MOZ.5/SAFIR/RUBIN 5/SL-8 3.7 22:49:45 39° SSE 22:51:30 81° ENE 22:56:10 10° NNW
Cosmos 1758 3.3 22:49:08 10° NNW 22:53:12 66° W 22:53:46 57° SW
Cosmos 1140 Rocket 4.1 22:51:05 10° NNW 22:56:13 54° ENE 23:00:47 13° SE
Cosmos 1932 4.5 22:53:16 33° SW 22:56:21 86° NW 23:02:43 10° NE
Cosmos 1315 Rocket 2.7 22:52:26 10° NNW 22:56:27 76° W 22:57:09 58° SSW
Lacrosse 5 2.7 22:54:17 15° W 22:58:25 49° NNW 23:03:22 10° NE
Cosmos 1707 2.7 22:58:53 55° WSW 22:59:24 63° WNW 23:03:14 10° N
USA 281 3.2 22:55:42 17° SSE 23:01:03 86° ENE 23:07:40 10° NNW
USA 276 2.4 23:03:50 53° WNW 23:04:24 67° N 23:07:34 10° ENE
Meteor 2-11 Rocket 4.4 22:59:17 10° N 23:05:30 89° E 23:09:02 27° S
USA 215 3.2 23:00:45 10° SE 23:07:12 62° SW 23:13:42 10° WNW
Helios 1A 3.3 23:06:55 43° SW 23:07:28 46° W 23:11:30 10° NNW
Cosmos 2251 Rocket 3.8 23:03:23 10° NNW 23:08:26 49° WSW 23:09:56 37° SSW
SL-16 R/B 2.7 23:03:39 18° SSE 23:08:26 76° ENE 23:14:42 10° NNW
UNK 4.1 23:06:17 24° SE 23:08:59 63° ENE 23:13:32 10° N
Cosmos 1544 Rocket 4.0 23:04:51 10° N 23:09:13 60° ENE 23:11:32 26° SSE
Cosmos 1697 Rocket 2.9 23:07:56 33° S 23:10:21 63° ESE 23:15:55 10° NNE
Cosmos 1908 3.3 23:06:41 10° N 23:10:36 72° E 23:11:56 39° SSE
Cosmos 1459 Rocket 4.0 23:04:34 10° NNW 23:10:47 69° W 23:13:49 31° SSW
Cosmos 1725 Rocket 4.1 23:06:28 10° N 23:12:45 77° E 23:17:04 21° SSE
Cosmos 304 Rocket 3.9 23:14:09 37° S 23:15:58 68° ESE 23:20:46 10° NNE
Cosmos 2233 Rocket 4.5 23:12:08 10° N 23:18:15 57° ENE 23:23:55 12° SSE
Cosmos 1455 Rocket 3.0 23:14:34 10° NNW 23:18:55 69° W 23:20:20 41° SSW
Meteor 1-16 Rocket 4.2 23:13:55 10° NNW 23:19:52 81° W 23:23:16 26° S
COSMOS 2455 3.7 23:15:41 10° NW 23:20:43 28° WSW 23:21:45 27° SW
Cosmos 1726 3.7 23:17:54 10° NW 23:20:42 22° W 23:20:42 22° W
Cosmos 2360 4.4 23:18:05 31° S 23:20:51 65° ESE 23:26:33 10° NNE
Cosmos 1980 Rocket 2.9 23:21:15 24° SSE 23:24:18 44° ESE 23:29:39 10° NE
Cosmos 2016 Rocket 3.9 23:18:37 10° NNW 23:24:52 78° W 23:28:38 25° S
Timation 1 Rocket 4.4 23:22:37 10° NW 23:28:30 59° WSW 23:32:16 23° S
Cosmos 2173 Rocket 4.3 23:24:27 10° NNW 23:30:23 49° W 23:33:26 28° SSW
Cosmos 1536 Rocket 4.3 23:29:09 22° SSE 23:31:41 47° E 23:35:58 10° NNE
Cosmos 1190 Rocket 4.0 23:26:26 10° NNW 23:31:42 87° ENE 23:36:17 14° SSE
IDEFIX/ARIANE 42P 4.4 23:30:14 10° NE 23:34:30 25° E 23:38:46 10° SSE
Cosmos 2227 Rocket 2.8 23:30:33 10° NW 23:35:43 38° WSW 23:37:44 28° SSW
In-Cosmos 22 4.5 23:33:41 29° SW 23:36:23 55° WNW 23:41:45 10° N
Cosmos 2297 Rocket 3.1 23:32:58 10° NW 23:37:45 28° WSW 23:39:09 25° SW
Cosmos 1674 2.9 23:36:47 39° SW 23:37:55 56° WNW 23:41:41 10° N
Cosmos 1656 4.4 23:40:31 21° WSW 23:43:46 43° NW 23:49:05 10° NNE
Cosmos 1626 2.0 23:42:44 37° S 23:44:06 87° W 23:47:49 10° N
Cosmos 2061 Rocket 4.2 23:40:47 10° NNW 23:47:00 58° W 23:51:07 22° SSW
GP-B 3.5 23:42:58 10° N 23:47:23 60° E 23:50:40 17° SSE
Cosmos 1953 3.1 23:45:48 10° NNW 23:49:27 35° W 23:50:30 30° SW
Cosmos 407 Rocket 3.7 23:45:58 10° NNW 23:51:10 51° WSW 23:54:29 21° S
Aureole 2 Rocket 2.7 23:48:57 10° NNW 23:51:33 46° ENE 23:53:37 14° SE
Cosmos 2369 3.7 23:48:09 26° SSW 23:51:34 86° WNW 23:57:21 10° NNE
Cosmos 2278 4.0 23:48:13 22° S 23:51:51 63° ESE 23:57:30 10° NNE
Cosmos 2082 3.9 23:47:57 10° NW 23:53:28 51° WSW 23:57:39 17° S
Cosmos 1975 Rocket 4.1 23:54:16 23° WSW 23:56:01 31° WNW 23:59:54 10° N
